Location: Digermulen
(68.3170°N, 15.0000°E)
Time: 23:00:16
(UTC+02:00)

N. Korean satellite - Visible Passes

Search period start: 15 October 2019 00:00
Search period end: 25 October 2019 00:00
Orbit: 455 x 508 km, 97.2° (Epoch: 14 October)

Date Brightness Start Highest point End Pass type
(mag) Time Alt. Az. Time Alt. Az. Time Alt. Az.
15 Oct 10.1 05:43:18 10° NE 05:45:19 14° E 05:47:22 10° ESE visible
15 Oct 10.4 19:41:31 10° W 19:42:39 11° WNW 19:43:46 10° WNW visible
16 Oct 10.6 05:19:21 10° ENE 05:19:40 10° ENE 05:20:00 10° E visible
16 Oct 8.4 06:50:45 10° NNE 06:54:04 37° E 06:57:26 10° SSE visible
16 Oct 10.0 19:14:47 10° SW 19:17:00 16° W 19:19:16 10° NW visible
17 Oct 9.2 06:25:33 10° NNE 06:28:36 26° E 06:31:40 10° SSE visible
17 Oct 9.4 18:48:38 10° SW 18:51:26 23° W 18:54:17 10° NW visible
18 Oct 9.8 06:00:28 10° NE 06:03:03 18° E 06:05:39 10° SE visible
18 Oct 8.6 18:22:45 10° SSW 18:25:55 33° W 18:29:08 10° NNW visible
19 Oct 10.2 05:35:39 10° NE 05:37:26 13° E 05:39:14 10° ESE visible
19 Oct 7.7 07:08:11 10° NNE 07:11:40 49° ESE 07:15:11 10° S visible
19 Oct 10.2 19:33:08 10° WSW 19:34:44 13° W 19:36:21 10° NW visible
20 Oct 8.6 06:42:56 10° NNE 06:46:13 34° E 06:49:34 10° SSE visible
20 Oct 9.8 19:06:38 10° SW 19:09:06 18° W 19:11:35 10° NW visible
21 Oct 9.3 06:17:45 10° NE 06:20:43 24° E 06:23:43 10° SSE visible
21 Oct 9.2 18:40:35 10° SSW 18:43:32 25° W 18:46:32 10° NNW visible
22 Oct 9.9 05:52:43 10° NE 05:55:09 17° E 05:57:36 10° SE visible
22 Oct 7.1 07:25:37 10° NNE 07:29:13 66° ESE 07:32:50 10° S visible
22 Oct 8.3 18:14:46 10° SSW 18:18:01 37° W 18:21:21 10° NNW visible
23 Oct 10.3 05:28:00 10° NE 05:29:31 12° E 05:31:00 10° ESE visible
23 Oct 8.0 07:00:20 10° NNE 07:03:48 44° E 07:07:19 10° S visible
23 Oct 7.4 17:49:09 10° S 17:52:35 55° WSW 17:56:05 10° NNW visible
23 Oct 10.1 19:24:49 10° WSW 19:26:47 14° W 19:28:46 10° NW visible
24 Oct 8.8 06:35:05 10° NNE 06:38:20 30° E 06:41:37 10° SSE visible
24 Oct 9.6 18:58:29 10° SW 19:01:09 20° W 19:03:52 10° NW visible
